| time (UTC) | temp F | wind direction | speed MPH | gust MPH | rain 1hr in | rain 24hr in | rain mn in | humidity % | barometer mb |
| 20260505111357 | 43 | 55 | 2.0 | 3.0 | 0.00 | 0.00 | 0.00 | 56 | 1014.9 |
| 20260505110853 | 43 | 59 | 3.0 | 3.0 | 0.00 | 0.00 | 0.00 | 56 | 1014.8 |
| 20260505110351 | 43 | 51 | 2.0 | 2.0 | 0.00 | 0.00 | 0.00 | 56 | 1014.8 |
| 20260505101821 | 42 | 61 | 1.0 | 1.0 | 0.00 | 0.00 | 0.00 | 59 | 1014.8 |
| 20260505101316 | 42 | 62 | 1.0 | 1.0 | 0.00 | 0.00 | 0.00 | 59 | 1014.9 |
| 20260505100812 | 42 | 61 | 2.0 | 2.0 | 0.00 | 0.00 | 0.00 | 58 | 1014.8 |
| 20260505100309 | 42 | 53 | 3.0 | 3.0 | 0.00 | 0.00 | 0.00 | 58 | 1014.5 |
| 20260505095805 | 42 | 68 | 1.0 | 1.0 | 0.00 | 0.00 | 0.00 | 58 | 1014.7 |
| 20260505095304 | 43 | 61 | 2.0 | 2.0 | 0.00 | 0.00 | 0.00 | 57 | 1014.8 |
| 20260505094758 | 43 | 54 | 2.0 | 2.0 | 0.00 | 0.00 | 0.00 | 57 | 1014.4 |
| 20260505094255 | 43 | 58 | 1.0 | 1.0 | 0.00 | 0.00 | 0.00 | 56 | 1014.7 |
| 20260505093750 | 43 | 65 | 2.0 | 2.0 | 0.00 | 0.00 | 0.00 | 55 | 1014.3 |
| 20260505093248 | 43 | 64 | 0.0 | 1.0 | 0.00 | 0.00 | 0.00 | 56 | 1014.5 |
| 20260505092745 | 43 | 61 | 1.0 | 1.0 | 0.00 | 0.00 | 0.00 | 55 | 1014.5 |
| 20260505092244 | 44 | 45 | 0.0 | 1.0 | 0.00 | 0.00 | 0.00 | 54 | 1014.5 |
| 20260505091740 | 44 | 67 | 1.0 | 1.0 | 0.00 | 0.00 | 0.00 | 53 | 1014.6 |
| 20260505091239 | 45 | 63 | 1.0 | 1.0 | 0.00 | 0.00 | 0.00 | 53 | 1014.6 |
| 20260505090735 | 45 | 69 | 1.0 | 1.0 | 0.00 | 0.00 | 0.00 | 52 | 1014.4 |
| 20260505090234 | 46 | 61 | 1.0 | 2.0 | 0.00 | 0.00 | 0.00 | 50 | 1014.6 |
| 20260505085731 | 46 | 58 | 2.0 | 2.0 | 0.00 | 0.00 | 0.00 | 50 | 1014.4 |
| 20260505085229 | 46 | 59 | 1.0 | 2.0 | 0.00 | 0.00 | 0.00 | 49 | 1014.5 |
| 20260505084726 | 47 | 61 | 2.0 | 3.0 | 0.00 | 0.00 | 0.00 | 49 | 1014.5 |
| 20260505084225 | 47 | 63 | 3.0 | 5.0 | 0.00 | 0.00 | 0.00 | 47 | 1014.4 |
| 20260505083722 | 47 | 51 | 2.0 | 2.0 | 0.00 | 0.00 | 0.00 | 47 | 1014.8 |
| 20260505083218 | 47 | 50 | 1.0 | 2.0 | 0.00 | 0.00 | 0.00 | 47 | 1014.6 |
| 20260505082714 | 48 | 55 | 3.0 | 3.0 | 0.00 | 0.00 | 0.00 | 46 | 1014.6 |
| 20260505082212 | 48 | 46 | 3.0 | 5.0 | 0.00 | 0.00 | 0.00 | 46 | 1014.7 |
| 20260505081707 | 48 | 40 | 5.0 | 7.0 | 0.00 | 0.00 | 0.00 | 45 | 1014.9 |
| 20260505081205 | 48 | 75 | 3.0 | 5.0 | 0.00 | 0.00 | 0.00 | 45 | 1014.8 |
| 20260505080702 | 48 | 340 | 3.0 | 5.0 | 0.00 | 0.00 | 0.00 | 46 | 1014.5 |
| 20260505080158 | 49 | 54 | 3.0 | 5.0 | 0.00 | 0.00 | 0.00 | 46 | 1014.8 |
| 20260505075654 | 49 | 49 | 4.0 | 5.0 | 0.00 | 0.00 | 0.00 | 46 | 1014.7 |
| 20260505075151 | 49 | 56 | 4.0 | 5.0 | 0.00 | 0.00 | 0.00 | 45 | 1014.8 |
| 20260505074648 | 49 | 37 | 3.0 | 3.0 | 0.00 | 0.00 | 0.00 | 45 | 1014.7 |
| 20260505074145 | 49 | 68 | 4.0 | 5.0 | 0.00 | 0.00 | 0.00 | 46 | 1014.6 |
| 20260505073643 | 50 | 32 | 4.0 | 5.0 | 0.00 | 0.00 | 0.00 | 45 | 1014.9 |
| 20260505073141 | 50 | 58 | 3.0 | 5.0 | 0.00 | 0.00 | 0.00 | 45 | 1014.8 |
| 20260505072636 | 50 | 53 | 3.0 | 5.0 | 0.00 | 0.00 | 0.00 | 45 | 1014.7 |
| 20260505072133 | 50 | 89 | 3.0 | 5.0 | 0.00 | 0.00 | 0.00 | 44 | 1014.6 |
| 20260505071628 | 50 | 26 | 7.0 | 10.0 | 0.00 | 0.00 | 0.00 | 44 | 1014.5 |
| 20260505071126 | 50 | 31 | 3.0 | 6.0 | 0.00 | 0.00 | 0.00 | 44 | 1014.5 |
| 20260505070623 | 51 | 50 | 3.0 | 3.0 | 0.00 | 0.00 | 0.00 | 45 | 1014.7 |
| 20260505070119 | 51 | 74 | 4.0 | 5.0 | 0.00 | 0.00 | 0.00 | 45 | 1014.7 |
| 20260505065615 | 51 | 27 | 7.0 | 8.0 | 0.00 | 0.00 | 0.00 | 44 | 1014.5 |
| 20260505065112 | 51 | 27 | 4.0 | 7.0 | 0.00 | 0.00 | 0.00 | 45 | 1014.7 |
| 20260505064609 | 51 | 74 | 3.0 | 5.0 | 0.00 | 0.00 | 0.00 | 45 | 1014.8 |
| 20260505064108 | 51 | 59 | 4.0 | 5.0 | 0.00 | 0.00 | 0.00 | 46 | 1014.6 |
| 20260505063604 | 51 | 55 | 3.0 | 5.0 | 0.00 | 0.00 | 0.00 | 46 | 1014.7 |
| 20260505063100 | 51 | 54 | 3.0 | 3.0 | 0.00 | 0.00 | 0.00 | 46 | 1014.5 |
| 20260505062557 | 51 | 48 | 3.0 | 5.0 | 0.00 | 0.00 | 0.00 | 46 | 1014.5 |
| 20260505062054 | 51 | 341 | 6.0 | 8.0 | 0.00 | 0.00 | 0.00 | 46 | 1014.3 |
| 20260505061552 | 51 | 29 | 4.0 | 8.0 | 0.00 | 0.00 | 0.00 | 45 | 1014.3 |
| 20260505061049 | 51 | 37 | 5.0 | 6.0 | 0.00 | 0.00 | 0.00 | 45 | 1014.4 |
| 20260505060547 | 51 | 67 | 3.0 | 5.0 | 0.00 | 0.00 | 0.00 | 46 | 1014.0 |
| 20260505060044 | 52 | 36 | 4.0 | 5.0 | 0.00 | 0.00 | 0.00 | 46 | 1014.2 |
| 20260505055538 | 52 | 33 | 4.0 | 7.0 | 0.00 | 0.00 | 0.00 | 46 | 1014.1 |
| 20260505055035 | 51 | 47 | 2.0 | 3.0 | 0.00 | 0.00 | 0.00 | 46 | 1014.0 |
| 20260505054533 | 51 | 64 | 1.0 | 2.0 | 0.00 | 0.00 | 0.00 | 47 | 1013.7 |
| 20260505054031 | 51 | 61 | 5.0 | 6.0 | 0.00 | 0.00 | 0.00 | 46 | 1013.7 |
| 20260505053528 | 51 | 5 | 3.0 | 6.0 | 0.00 | 0.00 | 0.00 | 46 | 1014.0 |
| 20260505053024 | 52 | 61 | 6.0 | 9.0 | 0.00 | 0.00 | 0.00 | 46 | 1014.0 |
| 20260505052521 | 52 | 61 | 3.0 | 6.0 | 0.00 | 0.00 | 0.00 | 46 | 1013.9 |
| 20260505052019 | 52 | 2 | 7.0 | 9.0 | 0.00 | 0.00 | 0.00 | 46 | 1013.5 |
| 20260505051515 | 52 | 60 | 3.0 | 5.0 | 0.00 | 0.00 | 0.00 | 46 | 1013.5 |
| 20260505051014 | 52 | 38 | 3.0 | 5.0 | 0.00 | 0.00 | 0.00 | 47 | 1013.6 |
| 20260505050511 | 53 | 55 | 3.0 | 5.0 | 0.00 | 0.00 | 0.00 | 47 | 1013.6 |
| 20260505041439 | 54 | 60 | 1.0 | 1.0 | 0.00 | 0.00 | 0.00 | 48 | 1013.2 |
| 20260505040936 | 54 | 58 | 1.0 | 1.0 | 0.00 | 0.00 | 0.00 | 48 | 1013.2 |
| 20260505040434 | 54 | 62 | 1.0 | 1.0 | 0.00 | 0.00 | 0.00 | 48 | 1013.1 |
| 20260505035930 | 54 | 55 | 0.0 | 1.0 | 0.00 | 0.00 | 0.00 | 48 | 1013.1 |
| 20260505035426 | 55 | 57 | 1.0 | 1.0 | 0.00 | 0.00 | 0.00 | 47 | 1013.1 |
| 20260505034924 | 55 | 62 | 2.0 | 2.0 | 0.00 | 0.00 | 0.00 | 47 | 1012.9 |
| 20260505034420 | 55 | 50 | 2.0 | 2.0 | 0.00 | 0.00 | 0.00 | 46 | 1013.0 |
| 20260505033917 | 55 | 60 | 5.0 | 6.0 | 0.00 | 0.00 | 0.00 | 46 | 1012.9 |
| 20260505033414 | 55 | 58 | 3.0 | 3.0 | 0.00 | 0.00 | 0.00 | 46 | 1012.6 |
| 20260505032912 | 55 | 51 | 4.0 | 5.0 | 0.00 | 0.00 | 0.00 | 47 | 1012.9 |
| 20260505032409 | 56 | 41 | 3.0 | 5.0 | 0.00 | 0.00 | 0.00 | 46 | 1012.6 |
| 20260505031905 | 56 | 51 | 3.0 | 3.0 | 0.00 | 0.00 | 0.00 | 45 | 1012.4 |
| 20260505031402 | 57 | 58 | 2.0 | 3.0 | 0.00 | 0.00 | 0.00 | 45 | 1012.5 |
| 20260505030859 | 57 | 71 | 4.0 | 5.0 | 0.00 | 0.00 | 0.00 | 43 | 1012.3 |
| 20260505030355 | 57 | 50 | 6.0 | 7.0 | 0.00 | 0.00 | 0.00 | 43 | 1012.4 |
| 20260505025851 | 58 | 47 | 3.0 | 5.0 | 0.00 | 0.00 | 0.00 | 43 | 1012.3 |
| 20260505025349 | 58 | 93 | 4.0 | 5.0 | 0.00 | 0.00 | 0.00 | 42 | 1012.0 |
| 20260505024847 | 58 | 47 | 3.0 | 3.0 | 0.00 | 0.00 | 0.00 | 43 | 1012.2 |
| 20260505024345 | 58 | 42 | 4.0 | 6.0 | 0.00 | 0.00 | 0.00 | 42 | 1012.1 |
| 20260505023841 | 58 | 55 | 4.0 | 5.0 | 0.00 | 0.00 | 0.00 | 42 | 1012.0 |
| 20260505023338 | 59 | 54 | 3.0 | 3.0 | 0.00 | 0.00 | 0.00 | 42 | 1011.9 |
| 20260505022836 | 59 | 27 | 2.0 | 3.0 | 0.00 | 0.00 | 0.00 | 42 | 1011.8 |
| 20260505022332 | 59 | 48 | 3.0 | 5.0 | 0.00 | 0.00 | 0.00 | 41 | 1011.7 |
| 20260505021830 | 59 | 44 | 2.0 | 3.0 | 0.00 | 0.00 | 0.00 | 41 | 1011.8 |
| 20260505021326 | 60 | 51 | 3.0 | 3.0 | 0.00 | 0.00 | 0.00 | 41 | 1011.5 |
| 20260505020822 | 60 | 67 | 2.0 | 2.0 | 0.00 | 0.00 | 0.00 | 41 | 1011.5 |
| 20260505020318 | 60 | 12 | 3.0 | 3.0 | 0.00 | 0.00 | 0.00 | 41 | 1011.7 |
| 20260505015815 | 60 | 56 | 3.0 | 3.0 | 0.00 | 0.00 | 0.00 | 40 | 1011.3 |
| 20260505015312 | 61 | 55 | 3.0 | 3.0 | 0.00 | 0.00 | 0.00 | 40 | 1011.2 |
| 20260505014809 | 61 | 41 | 2.0 | 2.0 | 0.00 | 0.00 | 0.00 | 39 | 1011.1 |
| 20260505014307 | 62 | 50 | 5.0 | 6.0 | 0.00 | 0.00 | 0.00 | 38 | 1011.0 |
| 20260505013802 | 63 | 60 | 1.0 | 2.0 | 0.00 | 0.00 | 0.00 | 39 | 1011.1 |
| 20260505013300 | 63 | 74 | 1.0 | 2.0 | 0.00 | 0.00 | 0.00 | 38 | 1011.0 |
| 20260505012758 | 64 | 56 | 5.0 | 7.0 | 0.00 | 0.00 | 0.00 | 38 | 1011.1 |
| 20260505012255 | 64 | 62 | 2.0 | 3.0 | 0.00 | 0.00 | 0.00 | 38 | 1011.0 |
| 20260505011751 | 64 | 36 | 3.0 | 5.0 | 0.00 | 0.00 | 0.00 | 37 | 1010.9 |
| 20260505011248 | 64 | 52 | 1.0 | 1.0 | 0.00 | 0.00 | 0.00 | 41 | 1010.8 |
| 20260505010744 | 64 | 55 | 1.0 | 1.0 | 0.00 | 0.00 | 0.00 | 41 | 1010.7 |
| 20260505010240 | 63 | 53 | 2.0 | 2.0 | 0.00 | 0.00 | 0.00 | 40 | 1010.9 |
| 20260505005737 | 63 | 66 | 1.0 | 1.0 | 0.00 | 0.00 | 0.00 | 40 | 1010.7 |
| 20260505005234 | 63 | 65 | 2.0 | 2.0 | 0.00 | 0.00 | 0.00 | 41 | 1010.9 |
| 20260505004731 | 63 | 55 | 0.0 | 0.0 | 0.00 | 0.00 | 0.00 | 41 | 1010.7 |
| 20260505004227 | 63 | 55 | 3.0 | 6.0 | 0.00 | 0.00 | 0.00 | 39 | 1010.9 |
| 20260505003725 | 63 | 60 | 1.0 | 1.0 | 0.00 | 0.00 | 0.00 | 39 | 1010.8 |
| 20260505003222 | 63 | 52 | 1.0 | 2.0 | 0.00 | 0.00 | 0.00 | 40 | 1010.8 |
| 20260505002718 | 64 | 61 | 4.0 | 7.0 | 0.00 | 0.00 | 0.00 | 39 | 1010.9 |
| 20260505002216 | 64 | 62 | 1.0 | 1.0 | 0.00 | 0.00 | 0.00 | 40 | 1010.8 |
| 20260505001713 | 64 | 41 | 2.0 | 2.0 | 0.00 | 0.00 | 0.00 | 39 | 1011.1 |
| 20260505001211 | 65 | 66 | 3.0 | 6.0 | 0.00 | 0.00 | 0.00 | 38 | 1011.0 |
| 20260505000708 | 66 | 57 | 4.0 | 6.0 | 0.00 | 0.00 | 0.00 | 38 | 1010.9 |
| 20260505000206 | 66 | 44 | 2.0 | 3.0 | 0.00 | 0.00 | 0.00 | 38 | 1010.9 |
| 20260504235702 | 67 | 57 | 3.0 | 3.0 | 0.00 | 0.00 | 0.00 | 39 | 1010.6 |
| 20260504235158 | 67 | 52 | 3.0 | 3.0 | 0.00 | 0.00 | 0.00 | 36 | 1010.7 |
| 20260504234656 | 68 | 60 | 3.0 | 3.0 | 0.00 | 0.00 | 0.00 | 35 | 1010.6 |
| 20260504234152 | 66 | 24 | 3.0 | 9.0 | 0.00 | 0.00 | 0.00 | 38 | 1010.4 |
| 20260504233648 | 66 | 50 | 7.0 | 11.0 | 0.00 | 0.00 | 0.00 | 38 | 1010.6 |
| 20260504233144 | 67 | 44 | 1.0 | 1.0 | 0.00 | 0.00 | 0.00 | 37 | 1010.6 |
| 20260504232642 | 68 | 52 | 4.0 | 6.0 | 0.00 | 0.00 | 0.00 | 38 | 1010.6 |
| 20260504232139 | 68 | 59 | 3.0 | 3.0 | 0.00 | 0.00 | 0.00 | 36 | 1010.7 |
| 20260504231636 | 68 | 64 | 1.0 | 1.0 | 0.00 | 0.00 | 0.00 | 39 | 1010.4 |
| 20260504231132 | 68 | 62 | 0.0 | 1.0 | 0.00 | 0.00 | 0.00 | 37 | 1010.4 |
| 20260504230628 | 68 | 66 | 0.0 | 1.0 | 0.00 | 0.00 | 0.00 | 37 | 1010.6 |
| 20260504230127 | 69 | 24 | 3.0 | 3.0 | 0.00 | 0.00 | 0.00 | 39 | 1010.3 |
| 20260504225625 | 69 | 52 | 3.0 | 5.0 | 0.00 | 0.00 | 0.00 | 38 | 1010.0 |
| 20260504225121 | 69 | 74 | 1.0 | 2.0 | 0.00 | 0.00 | 0.00 | 34 | 1010.6 |
| 20260504224618 | 70 | 52 | 2.0 | 2.0 | 0.00 | 0.00 | 0.00 | 34 | 1010.4 |
| 20260504224115 | 70 | 57 | 1.0 | 2.0 | 0.00 | 0.00 | 0.00 | 32 | 1010.2 |
| 20260504223612 | 70 | 50 | 2.0 | 2.0 | 0.00 | 0.00 | 0.00 | 34 | 1010.6 |
| 20260504223107 | 71 | 222 | 2.0 | 3.0 | 0.00 | 0.00 | 0.00 | 34 | 1010.3 |
| 20260504222605 | 70 | 60 | 2.0 | 2.0 | 0.00 | 0.00 | 0.00 | 33 | 1010.3 |
| 20260504222101 | 70 | 57 | 3.0 | 3.0 | 0.00 | 0.00 | 0.00 | 33 | 1010.2 |
| 20260504221559 | 71 | 64 | 3.0 | 5.0 | 0.00 | 0.00 | 0.00 | 34 | 1010.6 |
| 20260504221055 | 70 | 63 | 3.0 | 3.0 | 0.00 | 0.00 | 0.00 | 35 | 1010.3 |
| 20260504220552 | 70 | 51 | 4.0 | 5.0 | 0.00 | 0.00 | 0.00 | 34 | 1010.4 |
| 20260504220049 | 70 | 47 | 2.0 | 2.0 | 0.00 | 0.00 | 0.00 | 34 | 1010.3 |
| 20260504215546 | 71 | 55 | 0.0 | 1.0 | 0.00 | 0.00 | 0.00 | 33 | 1010.3 |
| 20260504215043 | 72 | 42 | 2.0 | 2.0 | 0.00 | 0.00 | 0.00 | 33 | 1010.4 |
| 20260504214539 | 70 | 60 | 1.0 | 1.0 | 0.00 | 0.00 | 0.00 | 34 | 1010.4 |
| 20260504214035 | 70 | 337 | 2.0 | 3.0 | 0.00 | 0.00 | 0.00 | 34 | 1010.7 |
| 20260504213532 | 71 | 34 | 6.0 | 8.0 | 0.00 | 0.00 | 0.00 | 33 | 1010.8 |
| 20260504213029 | 71 | 57 | 2.0 | 3.0 | 0.00 | 0.00 | 0.00 | 34 | 1010.4 |
| 20260504212525 | 70 | 50 | 1.0 | 1.0 | 0.00 | 0.00 | 0.00 | 33 | 1010.6 |
| 20260504212023 | 71 | 34 | 2.0 | 2.0 | 0.00 | 0.00 | 0.00 | 34 | 1010.7 |
| 20260504211519 | 70 | 54 | 1.0 | 1.0 | 0.00 | 0.00 | 0.00 | 33 | 1010.6 |
| 20260504211017 | 70 | 69 | 2.0 | 2.0 | 0.00 | 0.00 | 0.00 | 35 | 1010.7 |
| 20260504210513 | 70 | 58 | 3.0 | 5.0 | 0.00 | 0.00 | 0.00 | 35 | 1010.6 |
| 20260504210010 | 71 | 59 | 2.0 | 3.0 | 0.00 | 0.00 | 0.00 | 34 | 1010.8 |
| 20260504205508 | 71 | 59 | 1.0 | 2.0 | 0.00 | 0.00 | 0.00 | 32 | 1011.0 |
| 20260504205006 | 69 | 39 | 4.0 | 5.0 | 0.00 | 0.00 | 0.00 | 36 | 1010.8 |
| 20260504204504 | 70 | 52 | 4.0 | 5.0 | 0.00 | 0.00 | 0.00 | 33 | 1011.1 |
| 20260504204002 | 70 | 31 | 3.0 | 3.0 | 0.00 | 0.00 | 0.00 | 34 | 1010.8 |
| 20260504203500 | 71 | 52 | 1.0 | 1.0 | 0.00 | 0.00 | 0.00 | 32 | 1011.2 |
| 20260504202956 | 69 | 41 | 2.0 | 3.0 | 0.00 | 0.00 | 0.00 | 38 | 1010.9 |
| 20260504202452 | 70 | 9 | 3.0 | 3.0 | 0.00 | 0.00 | 0.00 | 34 | 1011.0 |
| 20260504201949 | 69 | 7 | 5.0 | 7.0 | 0.00 | 0.00 | 0.00 | 34 | 1011.2 |
| 20260504201446 | 70 | 160 | 2.0 | 2.0 | 0.00 | 0.00 | 0.00 | 34 | 1011.0 |
| 20260504200944 | 70 | 65 | 2.0 | 3.0 | 0.00 | 0.00 | 0.00 | 32 | 1011.0 |
| 20260504200441 | 69 | 350 | 3.0 | 3.0 | 0.00 | 0.00 | 0.00 | 36 | 1010.8 |
| 20260504195937 | 69 | 47 | 2.0 | 2.0 | 0.00 | 0.00 | 0.00 | 34 | 1011.0 |
| 20260504195433 | 70 | 62 | 4.0 | 5.0 | 0.00 | 0.00 | 0.00 | 34 | 1011.0 |
| 20260504194930 | 68 | 38 | 3.0 | 5.0 | 0.00 | 0.00 | 0.00 | 35 | 1011.0 |
| 20260504194426 | 69 | 49 | 2.0 | 2.0 | 0.00 | 0.00 | 0.00 | 36 | 1011.2 |
| 20260504193922 | 68 | 69 | 1.0 | 2.0 | 0.00 | 0.00 | 0.00 | 35 | 1011.1 |
| 20260504193419 | 69 | 41 | 5.0 | 7.0 | 0.00 | 0.00 | 0.00 | 33 | 1011.3 |
| 20260504192918 | 69 | 31 | 3.0 | 5.0 | 0.00 | 0.00 | 0.00 | 35 | 1011.2 |
| 20260504192415 | 68 | 46 | 2.0 | 2.0 | 0.00 | 0.00 | 0.00 | 33 | 1011.3 |
| 20260504191914 | 68 | 49 | 3.0 | 3.0 | 0.00 | 0.00 | 0.00 | 37 | 1011.4 |
| 20260504191411 | 68 | 31 | 2.0 | 3.0 | 0.00 | 0.00 | 0.00 | 37 | 1011.4 |
| 20260504190906 | 69 | 65 | 3.0 | 3.0 | 0.00 | 0.00 | 0.00 | 34 | 1011.5 |
| 20260504190402 | 68 | 30 | 3.0 | 5.0 | 0.00 | 0.00 | 0.00 | 37 | 1011.5 |
| 20260504185859 | 68 | 43 | 1.0 | 2.0 | 0.00 | 0.00 | 0.00 | 37 | 1011.7 |
| 20260504185356 | 67 | 43 | 3.0 | 3.0 | 0.00 | 0.00 | 0.00 | 36 | 1011.7 |
| 20260504184852 | 67 | 24 | 2.0 | 2.0 | 0.00 | 0.00 | 0.00 | 36 | 1012.0 |
| 20260504184348 | 67 | 45 | 2.0 | 2.0 | 0.00 | 0.00 | 0.00 | 34 | 1011.9 |
| 20260504183844 | 68 | 70 | 2.0 | 2.0 | 0.00 | 0.00 | 0.00 | 34 | 1012.1 |
| 20260504183342 | 67 | 24 | 1.0 | 2.0 | 0.00 | 0.00 | 0.00 | 35 | 1012.0 |
| 20260504182839 | 67 | 50 | 5.0 | 8.0 | 0.00 | 0.00 | 0.00 | 36 | 1012.1 |
| 20260504182337 | 66 | 37 | 1.0 | 1.0 | 0.00 | 0.00 | 0.00 | 36 | 1012.0 |
| 20260504181833 | 66 | 62 | 4.0 | 6.0 | 0.00 | 0.00 | 0.00 | 35 | 1012.2 |
| 20260504181331 | 65 | 61 | 3.0 | 3.0 | 0.00 | 0.00 | 0.00 | 40 | 1012.3 |
| 20260504180830 | 66 | 71 | 2.0 | 3.0 | 0.00 | 0.00 | 0.00 | 40 | 1012.2 |
| 20260504180328 | 65 | 66 | 3.0 | 5.0 | 0.00 | 0.00 | 0.00 | 38 | 1012.1 |
| 20260504175825 | 64 | 57 | 4.0 | 5.0 | 0.00 | 0.00 | 0.00 | 39 | 1012.3 |
| 20260504175322 | 64 | 45 | 3.0 | 6.0 | 0.00 | 0.00 | 0.00 | 39 | 1012.4 |
| 20260504174820 | 63 | 59 | 3.0 | 5.0 | 0.00 | 0.00 | 0.00 | 38 | 1012.4 |
| 20260504174317 | 64 | 50 | 4.0 | 5.0 | 0.00 | 0.00 | 0.00 | 39 | 1012.2 |
| 20260504173814 | 64 | 29 | 6.0 | 8.0 | 0.00 | 0.00 | 0.00 | 39 | 1012.3 |
| 20260504173311 | 63 | 61 | 3.0 | 6.0 | 0.00 | 0.00 | 0.00 | 39 | 1012.4 |
| 20260504172808 | 63 | 65 | 5.0 | 7.0 | 0.00 | 0.00 | 0.00 | 38 | 1012.4 |
| 20260504172305 | 63 | 56 | 6.0 | 8.0 | 0.00 | 0.00 | 0.00 | 39 | 1012.6 |
| 20260504171800 | 62 | 25 | 6.0 | 8.0 | 0.00 | 0.00 | 0.00 | 39 | 1012.4 |
| 20260504171258 | 62 | 61 | 3.0 | 5.0 | 0.00 | 0.00 | 0.00 | 41 | 1012.6 |
| 20260504170755 | 63 | 22 | 6.0 | 9.0 | 0.00 | 0.00 | 0.00 | 39 | 1012.3 |
| 20260504170252 | 61 | 62 | 5.0 | 8.0 | 0.00 | 0.00 | 0.00 | 41 | 1012.8 |
| 20260504160210 | 59 | 37 | 5.0 | 7.0 | 0.00 | 0.00 | 0.00 | 43 | 1013.2 |
| 20260504151138 | 57 | 43 | 4.0 | 5.0 | 0.00 | 0.00 | 0.00 | 44 | 1013.5 |
| 20260504150635 | 57 | 63 | 6.0 | 8.0 | 0.00 | 0.00 | 0.00 | 43 | 1013.1 |
| 20260504150132 | 57 | 40 | 5.0 | 6.0 | 0.00 | 0.00 | 0.00 | 43 | 1013.1 |
| 20260504141101 | 54 | 21 | 5.0 | 7.0 | 0.00 | 0.00 | 0.00 | 47 | 1012.8 |
| 20260504140557 | 54 | 42 | 4.0 | 6.0 | 0.00 | 0.00 | 0.00 | 47 | 1012.6 |
| 20260504130521 | 50 | 55 | 2.0 | 2.0 | 0.00 | 0.00 | 0.00 | 55 | 1012.1 |